Flag for U.S.A. Weather past 2 weeks in Billings, Montana, U.S.A.

Now
32 °F

Passing clouds.


Feels Like: 20 °F
Forecast: 25 / 38 °F
Wind: 21 mph from Southwest

Location: Billings Logan International Airport

Current Time: Dec 19, 2014 at 1:44:51 AM

Latest Report: Dec 19, 2014 at 12:53 AM


Visibility: 10 mi

Pressure: 30.03 "Hg

Humidity: 61%

Dew point: 20 °F

Location of BillingsLocation

Historic Weather in Billings — Graph

°F

Billings temperature yesterday

Maximum temperature yesterday: 37 °F (at 2:53 PM)
Minimum temperature yesterday: 22 °F (at 5:53 AM)
Average temperature yesterday: 30 °F

Past Weeks' High & Low Weather Summary

 TemperatureHumidityPressure
High58 °F (Dec 10, 1:53 PM)96% (Dec 15, 6:53 PM)30.37 "Hg (Dec 15, 6:53 PM)
Low20 °F (Dec 16, 7:53 AM)29% (Dec 7, 1:53 PM)29.68 "Hg (Dec 13, 2:53 PM)
Average37 °F66%30.06 "Hg
* Reported Dec 3 11:53 PM — Dec 18 11:53 PM, Billings, Weather by CustomWeather, © 2014

Note: Actual official high and low records may vary slightly from our data, if they occured in-between our weather recording intervals... More about our weather records

Advertising

Billings weather history for previous 24 hours

 ConditionsComfort  
Time TempWeatherWind HumidityBarometerVisibility
11:53 PM
Dec 18
31 °FPassing clouds.18 mph64%30.05 "Hg10 mi
10:53 PM30 °FPassing clouds.16 mph64%30.07 "Hg10 mi
9:53 PM31 °FClear.21 mph61%30.06 "Hg10 mi
8:53 PM32 °FClear.22 mph59%30.07 "Hg10 mi
7:53 PM33 °FPassing clouds.21 mph58%30.07 "Hg10 mi
6:53 PM34 °FPassing clouds.20 mph56%30.08 "Hg10 mi
5:53 PM35 °FPassing clouds.20 mph56%30.06 "Hg10 mi
4:53 PM35 °FPassing clouds.17 mph56%30.06 "Hg10 mi
3:53 PM36 °FScattered clouds.21 mph57%30.05 "Hg10 mi
2:53 PM37 °FScattered clouds.18 mph57%30.03 "Hg10 mi
1:53 PM36 °FScattered clouds.23 mph59%30.03 "Hg10 mi
12:53 PM36 °FScattered clouds.17 mph57%30.04 "Hg10 mi
11:53 AM34 °FPassing clouds.22 mph59%30.05 "Hg10 mi
10:53 AM32 °FPassing clouds.21 mph64%30.07 "Hg10 mi
9:53 AM29 °FScattered clouds.18 mph66%30.09 "Hg10 mi
8:53 AM25 °FPartly sunny.17 mph75%30.08 "Hg10 mi
7:53 AM24 °FScattered clouds.20 mph75%30.08 "Hg10 mi
6:53 AM22 °FPassing clouds.20 mph82%30.06 "Hg10 mi
5:53 AM22 °FPassing clouds.16 mph82%30.06 "Hg10 mi
4:53 AM23 °FClear.16 mph78%30.05 "Hg10 mi
3:53 AM23 °FClear.17 mph81%30.04 "Hg10 mi
2:53 AM23 °FClear.15 mph81%30.06 "Hg10 mi
1:53 AM24 °FClear.16 mph77%30.05 "Hg10 mi
Weather by CustomWeather, © 2014

See weather overviewHow to use our weather pages